Location: Augirein
(42.9320°N, 0.9181°E)
Time: 17:29:24
(UTC+00:00)

Cosmos 2098 Rocket - Pass Details

Date: 20 June 2021
Orbit: 366 x 1176 km, 82.9° (Epoch: 31 July)

Event Time Altitude Azimuth Distance (km) Brightness Sun altitude
Exits shadow 01:13:35 44° 175° (S) 1,104 3.9 -21.4°
Maximum altitude 01:15:20 80° 96° (E) 779 3.5 -21.3°
Drops below altitude 10° 01:19:56 10° 10° (N) 2,053 6.9 -21.0°
Sets 01:21:56 0° 10° (N) 2,852 7.9 -20.9°
